Location: Canon Road
(40.7761°N, 111.8849°W)
Time: 21:49:44
(UTC+00:00)

LightSail 2 - Pass Details

Date: 13 April 2020
Orbit: 692 x 722 km, 24.0° (Epoch: 06 June)

Event Time Altitude Azimuth Distance (km) Brightness Sun altitude
Exits shadow 11:26:01 10° 189° (S) 2,122 7.3 -15.9°
Maximum altitude 11:26:14 10° 186° (S) 2,119 7.3 -15.8°
Drops below altitude 10° 11:27:07 10° 176° (S) 2,145 7.4 -15.7°
Sets 11:31:51 0° 137° (SE) 3,053 8.6 -14.9°
